TimeEDT,TemperatureF,Dew PointF,Humidity,Sea Level PressureIn,VisibilityMPH,Wind Direction,Wind SpeedMPH,Gust SpeedMPH,PrecipitationIn,Events,Conditions,WindDirDegrees,DateUTC
12:53 AM,53.1,51.1,93,29.95,0.8,Calm,Calm,-,0.00,,Light Drizzle,0,2013-05-23 04:53:00
1:53 AM,53.1,51.1,93,29.95,1.0,Calm,Calm,-,0.00,,Overcast,0,2013-05-23 05:53:00
2:53 AM,53.1,51.1,93,29.92,0.5,Calm,Calm,-,N/A,Fog,Fog,0,2013-05-23 06:53:00
3:09 AM,53.6,51.8,94,29.87,0.5,ESE,3.5,-,N/A,Fog,Fog,120,2013-05-23 07:09:00
3:53 AM,53.1,52.0,96,29.91,1.0,ESE,4.6,-,N/A,,Overcast,120,2013-05-23 07:53:00
4:53 AM,53.1,52.0,96,29.91,1.0,Calm,Calm,-,N/A,,Overcast,0,2013-05-23 08:53:00
5:28 AM,53.6,51.8,94,29.88,0.5,Calm,Calm,-,0.01,Fog,Light Drizzle,0,2013-05-23 09:28:00
5:53 AM,53.1,52.0,96,29.93,0.5,Calm,Calm,-,0.01,Fog,Light Drizzle,0,2013-05-23 09:53:00
5:55 AM,53.6,51.8,94,29.89,1.0,Calm,Calm,-,0.00,,Light Drizzle,0,2013-05-23 09:55:00
6:42 AM,53.6,51.8,94,29.89,1.5,Calm,Calm,-,0.00,,Light Drizzle,0,2013-05-23 10:42:00
6:53 AM,54.0,52.0,93,29.93,1.5,East,3.5,-,0.00,,Light Drizzle,90,2013-05-23 10:53:00
7:53 AM,55.0,53.1,93,29.93,1.5,Calm,Calm,-,0.00,,Overcast,0,2013-05-23 11:53:00
8:53 AM,55.0,54.0,96,29.93,1.5,Calm,Calm,-,N/A,,Overcast,0,2013-05-23 12:53:00
9:40 AM,55.4,55.4,100,29.88,0.8,South,3.5,-,N/A,,Overcast,180,2013-05-23 13:40:00
9:53 AM,55.9,55.0,97,29.92,0.8,South,5.8,-,N/A,,Overcast,180,2013-05-23 13:53:00
10:40 AM,57.2,55.4,94,29.87,1.0,South,4.6,-,0.01,,Overcast,190,2013-05-23 14:40:00
10:53 AM,57.0,55.9,96,29.91,1.0,South,4.6,-,0.01,Rain,Light Rain,190,2013-05-23 14:53:00
11:45 AM,60.8,57.2,88,29.87,3.0,Calm,Calm,-,0.00,,Overcast,0,2013-05-23 15:45:00
11:53 AM,60.1,57.9,93,29.92,3.0,Variable,3.5,-,0.00,,Overcast,0,2013-05-23 15:53:00
12:42 PM,62.6,60.8,94,29.86,5.0,Calm,Calm,-,N/A,,Overcast,0,2013-05-23 16:42:00
12:53 PM,64.0,61.0,90,29.89,5.0,South,4.6,-,N/A,,Overcast,190,2013-05-23 16:53:00
1:38 PM,69.8,66.2,88,29.82,5.0,SE,3.5,-,0.01,,Mostly Cloudy,140,2013-05-23 17:38:00
1:53 PM,72.0,68.0,87,29.85,6.0,South,4.6,-,0.01,,Mostly Cloudy,190,2013-05-23 17:53:00
2:32 PM,75.2,68.0,78,29.81,10.0,South,11.5,18.4,N/A,,Overcast,190,2013-05-23 18:32:00
2:53 PM,77.0,66.9,71,29.84,10.0,South,16.1,21.9,N/A,Rain-Thunderstorm,Light Thunderstorms and Rain,180,2013-05-23 18:53:00
3:06 PM,71.6,68.0,88,29.82,1.5,SSW,11.5,23.0,0.10,Rain-Thunderstorm,Heavy Thunderstorms and Rain,200,2013-05-23 19:06:00
3:22 PM,71.6,68.0,88,29.82,6.0,South,9.2,16.1,0.20,Thunderstorm,Overcast,190,2013-05-23 19:22:00
3:33 PM,71.6,68.0,88,29.82,6.0,SSW,6.9,-,0.20,,Overcast,200,2013-05-23 19:33:00
3:53 PM,72.0,69.1,91,29.86,6.0,South,8.1,-,0.20,,Mostly Cloudy,190,2013-05-23 19:53:00
4:53 PM,72.0,66.9,84,29.86,5.0,South,8.1,-,0.00,Rain,Light Rain,190,2013-05-23 20:53:00
5:30 PM,69.8,66.2,88,29.81,4.0,SSE,8.1,-,0.06,Rain,Light Rain,160,2013-05-23 21:30:00
5:53 PM,70.0,66.9,90,29.85,4.0,South,8.1,-,0.09,Rain,Light Rain,170,2013-05-23 21:53:00
6:39 PM,69.8,66.2,88,29.81,3.0,South,12.7,-,0.04,Rain,Light Rain,190,2013-05-23 22:39:00
6:53 PM,69.1,66.9,93,29.85,3.0,South,11.5,24.2,0.08,Rain,Rain,190,2013-05-23 22:53:00
7:53 PM,68.0,64.9,90,29.86,6.0,South,11.5,-,0.05,Rain,Light Rain,180,2013-05-23 23:53:00
8:53 PM,66.9,64.9,93,29.84,10.0,South,6.9,-,0.01,,Scattered Clouds,180,2013-05-24 00:53:00
9:16 PM,68.0,64.4,88,29.80,10.0,South,11.5,-,N/A,,Mostly Cloudy,180,2013-05-24 01:16:00
9:53 PM,68.0,64.9,90,29.84,10.0,South,10.4,-,0.00,,Overcast,190,2013-05-24 01:53:00
10:53 PM,68.0,64.0,87,29.82,10.0,South,9.2,-,0.00,Rain,Light Rain,170,2013-05-24 02:53:00
11:29 PM,66.2,64.4,94,29.77,4.0,South,13.8,23.0,0.05,Rain,Light Rain,170,2013-05-24 03:29:00
11:53 PM,66.0,64.0,93,29.81,10.0,South,9.2,19.6,0.06,Rain,Light Rain,180,2013-05-24 03:53:00